Tetri-Tskaro

Georgia     41˚32′38″N   44˚27′44″E
temp.,
°C
wind,
m/s
gust,
m/s
humid.,
%
clouds,
%
prec.,
mm/h
press.,
hPa
HPBL,
m
2 december, wed
wed201:00wnw118747 0.0 102621
04:00+1˚nw118024 0.0 102622
07:00+1˚nw11750 0.0 102622
10:00+4˚w00592 0.0 102689
13:00+7˚ese21565 0.0 1024392
16:00+7˚ese22603 0.0 1023405
19:00+3˚n017823 0.0 102522
22:00+2˚n118116 0.0 102722
3 december, thu
thu301:00+1˚n118625 0.0 102722
04:00+1˚nnw118920 0.0 102822
07:00+2˚nnw018762 0.0 102824
10:00+3˚e118275 0.0 1028158
13:00+4˚e227785 0.0 1026465
16:00+4˚e227890 0.0 1025447
19:00+3˚ene128499 0.0 1027200
22:00+3˚ne128599 0.0 1028169
4 december, fri
fri401:00+3˚ene1286100 0.0 1029206
04:00+2˚ene118999 0.0 1028134
07:00+2˚ese1293100 0.0 1028144
10:00+3˚ese2293100 0.1 1028197
13:00+4˚ese2282100 0.1 1025429
16:00+4˚e227699 0.2 1024530
19:00+4˚ene1180100 0.0 102665
22:00+3˚e008199 0.1 102644
5 december, sat
sat501:00+3˚e118599 0.1 1027151
04:00+3˚sse119299 0.1 102678
07:00+2˚sse009497 0.1 102681
10:00+3˚ene118793 0.1 1026221
13:00+5˚e227587 0.1 1023612
16:00+5˚ese227093 0.2 1022660
19:00+4˚e127691 0.1 1024147
22:00+4˚ne117696 0.1 102590
6 december, sun
sun601:00+4˚ene1176100 0.1 102659
04:00+3˚ene1182100 0.2 102674
07:00+2˚e018798 0.2 102677
10:00+3˚ese128799 0.4 1026265
13:00+5˚ese227391 0.2 1025610
16:00+4˚ese338090 0.4 1024474
19:00+2˚ese229399 0.3 1026226
22:00+2˚e129599 0.6 1027175